Hourly Data Report for October 15, 2013

All times are specified in Local Standard Time (LST). Add 1 hour to adjust for Daylight Saving Time where and when it is observed.

ST LEONARD CS
NEW BRUNSWICK

47°09'28.050" N
67°49'55.014" W
245.00 m
810I001
71019
WIY

Download Data

Hourly Data (October 2013)
Hourly Data Report for October 15, 2013
Temp Definition
°C
Dew Point Temp Definition
°C
Rel Hum Definition
%
Wind Dir Definition
10's deg

Wind Spd Definition
km/h
Visibility Definition
km
Stn Press Definition
kPa
Hmdx Definition


Wind Chill Definition


Weather Definition


TIME
00:00 10.9 10.7 99 28 4   99.34     LegendNANA
01:00 10.8 10.6 99   0   99.35     LegendNANA
02:00 10.7 10.5 99 3 2   99.38     LegendNANA
03:00 9.8 9.5 98   0   99.38     LegendNANA
04:00 9.2 8.9 98 32 6   99.43     LegendNANA
05:00 8.2 7.6 96 31 4   99.45     LegendNANA
06:00 7.1 6.6 97   0   99.50     LegendNANA
07:00 6.0 5.3 95   0   99.52     LegendNANA
08:00 6.4 5.5 94 31 4   99.57     LegendNANA
09:00 8.3 5.9 85 33 4   99.61     LegendNANA
10:00 10.4 5.8 73 34 2   99.62     LegendNANA
11:00 11.6 4.6 62 36 6   99.60     LegendNANA
12:00 13.2 3.6 52 31 6   99.55     LegendNANA
13:00 13.1 3.0 50 35 4   99.51     LegendNANA
14:00 13.8 2.5 46 31 6   99.46     LegendNANA
15:00 14.2 2.9 46 8 2   99.40     LegendNANA
16:00 13.8 2.6 47 22 7   99.41     LegendNANA
17:00 13.3 0.7 42   0   99.38     LegendNANA
18:00 8.4 3.5 71   0   99.40     LegendNANA
19:00 5.1 2.9 86 12 4   99.40     LegendNANA
20:00 3.9 2.2 89 12 2   99.42     LegendNANA
21:00 3.5 2.0 90 8 2   99.43     LegendNANA
22:00 3.6 2.0 89   0   99.43     LegendNANA
23:00 4.1 1.9 86 9 6   99.39     LegendNANA

Notes on Data Quality.

Legend

  • E = Estimated
  • M = Missing
  • NA = Not Available
  • ‡ = Partner data that is not subject to review by the National Climate Archives
Date modified: